Weather reports worldwide

Advertisment
Wunsiedel-Schönbrunn, Germany (10686): temperature & dewpoint: 01.08.2020 02:00:00 - 07.08.2020 02:00:00 (CEST)Wunsiedel-Schönbrunn, Germany (10686): temperature 5cm & temperature -5cm: 01.08.2020 02:00:00 - 07.08.2020 02:00:00 (CEST)Wunsiedel-Schönbrunn, Germany (10686): temperature -20cm & temperature -100cm: 01.08.2020 02:00:00 - 07.08.2020 02:00:00 (CEST)Wunsiedel-Schönbrunn, Germany (10686): wind speed & gusts: 01.08.2020 02:00:00 - 07.08.2020 02:00:00 (CEST)Wunsiedel-Schönbrunn, Germany (10686): wind direction: 01.08.2020 02:00:00 - 07.08.2020 02:00:00 (CEST)Wunsiedel-Schönbrunn, Germany (10686): reduced air pressure: 01.08.2020 02:00:00 - 07.08.2020 02:00:00 (CEST)Wunsiedel-Schönbrunn, Germany (10686): visibility: 01.08.2020 02:00:00 - 07.08.2020 02:00:00 (CEST)Wunsiedel-Schönbrunn, Germany (10686): sunshine duration: 01.08.2020 02:00:00 - 07.08.2020 02:00:00 (CEST)Wunsiedel-Schönbrunn, Germany (10686): precipitation: 01.08.2020 02:00:00 - 07.08.2020 02:00:00 (CEST)
Date & Time tt [°C] td [°C] tt 5cm [°C] tt -5cm [°C] tt -20cm [°C] tt -100cm [°C] ff [km/h] ff [kn] fx [km/h] fx [kn] dd ppp [hPa] vv [km] sd [min] rr [mm]
07.08.2020 02:00:00 15,1 10,9 11,4 18,1 20,1 16,2 0 0 5 3 N 1022,6 59 0 0,0
07.08.2020 01:00:00 16,2 10,4 13,5 18,8 20,3 16,2 4 2 6 3 WNW 1022,3 66 0 0,0
07.08.2020 00:00:00 17,2 10,5 13,7 19,6 20,5 16,2 3 2 6 4 WNW 1022,1 65 0 0,0
06.08.2020 23:00:00 17,4 10,4 14,8 20,7 20,6 16,2 5 3 7 4 WNW 1021,7 69 0 0,0
06.08.2020 22:00:00 20,6 10,3 14,9 22,0 20,6 16,2 3 2 8 4 NE 1020,6 71 0 0,0
06.08.2020 21:00:00 21,9 9,8 18,2 23,7 20,4 16,2 4 2 12 7 E 1019,8 69 37 0,0
06.08.2020 20:00:00 24,1 8,3 24,5 25,1 20,2 16,3 8 4 14 8 E 1018,9 73 60 0,0
06.08.2020 19:00:00 25,3 9,1 27,9 26,1 19,8 16,3 8 4 14 8 E 1018,4 63 60 0,0
06.08.2020 18:00:00 25,9 7,9 29,0 26,5 19,3 16,3 6 4 14 8 ESE 1018,3 59 60 0,0
06.08.2020 17:00:00 25,8 7,5 29,9 26,2 18,8 16,3 6 3 18 10 SE 1018,5 75 60 0,0
06.08.2020 16:00:00 25,4 6,1 31,5 25,4 18,3 16,3 7 4 19 10 NE 1018,9 66 60 0,0
06.08.2020 15:00:00 24,6 6,5 28,5 24,2 17,9 16,3 10 5 22 12 E 1019,3 75 60 0,0
06.08.2020 14:00:00 23,7 8,2 30,2 22,8 17,5 16,3 9 5 20 11 E 1019,9 42 60 0,0
06.08.2020 13:00:00 22,6 6,8 26,8 21,3 17,2 16,3 9 5 22 12 E 1020,6 61 60 0,0
06.08.2020 12:00:00 21,7 7,8 26,8 20,1 16,9 16,3 11 6 23 13 NE 1020,7 66 60 0,0
06.08.2020 11:00:00 20,7 9,5 24,0 18,6 16,8 16,3 8 4 16 8 ESE 1021,0 50 60 0,0
06.08.2020 10:00:00 18,9 10,3 22,3 16,7 16,8 16,3 5 3 11 6 NE 1021,3 54 60 0,0
06.08.2020 09:00:00 16,8 9,7 19,2 15,1 16,9 16,3 6 3 12 6 ENE 1021,8 59 60 0,0
06.08.2020 08:00:00 15,2 10,2 15,4 13,8 17,1 16,3 0 0 3 2 N 1021,6 61 60 0,0
06.08.2020 07:00:00 11,6 8,3 10,6 13,4 17,3 16,4 3 1 8 4 WNW 1022,3 67 45 0,0
06.08.2020 06:00:00 11,2 8,4 8,2 13,6 17,6 16,4 4 2 5 3 WNW 1022,3 52 0 0,0
06.08.2020 05:00:00 11,8 8,5 8,5 14,1 17,9 16,4 5 3 8 5 W 1021,8 56 0 0,0
06.08.2020 04:00:00 11,9 8,6 8,6 14,6 18,1 16,4 4 2 6 4 W 1021,7 67 0 0,0
06.08.2020 03:00:00 11,6 9,6 7,9 15,2 18,4 16,4 2 1 5 3 NE 1021,5 50 0 0,0
06.08.2020 02:00:00 13,4 8,6 8,9 15,8 18,6 16,4 2 1 9 5 W 1021,1 65 0 0,0
06.08.2020 01:00:00 15,3 8,5 11,2 16,4 18,8 16,4 6 4 8 4 WSW 1020,5 68 0 0,0
06.08.2020 00:00:00 15,4 8,7 10,3 17,1 19,0 16,4 4 2 11 6 W 1020,5 50 0 0,0
05.08.2020 23:00:00 15,6 8,8 12,4 18,0 19,2 16,4 6 3 9 5 WSW 1020,2 68 0 0,0
05.08.2020 22:00:00 17,9 8,5 13,9 19,2 19,2 16,5 6 4 13 7 WSW 1019,4 75 0 0,0
05.08.2020 21:00:00 19,0 8,1 15,3 20,6 19,2 16,5 3 1 11 6 SSE 1018,6 73 41 0,0
05.08.2020 20:00:00 20,1 8,1 20,1 21,8 19,0 16,5 9 5 14 8 SE 1017,9 69 60 0,0
05.08.2020 19:00:00 21,8 6,9 23,8 22,7 18,7 16,5 8 5 16 8 E 1017,3 75 60 0,0
05.08.2020 18:00:00 22,1 5,7 25,2 23,0 18,4 16,5 5 3 18 10 ENE 1017,2 70 60 0,0
05.08.2020 17:00:00 22,2 5,7 26,7 23,2 18,0 16,5 9 5 22 12 NE 1017,4 61 60 0,0
05.08.2020 16:00:00 21,2 4,1 26,7 23,0 17,6 16,5 10 5 22 12 NE 1017,8 75 60 0,0
05.08.2020 15:00:00 21,5 4,0 25,0 22,3 17,1 16,5 8 4 28 15 ESE 1018,0 57 60 0,0
05.08.2020 14:00:00 20,9 4,4 25,8 21,4 16,7 16,5 8 5 23 12 E 1018,5 54 60 0,0
05.08.2020 13:00:00 20,4 5,7 26,6 20,1 16,3 16,5 10 5 18 10 ENE 1018,8 52 60 0,0
05.08.2020 12:00:00 19,8 6,8 24,0 18,7 16,1 16,5 10 5 20 11 E 1018,9 75 60 0,0
05.08.2020 11:00:00 18,0 10,6 22,3 16,8 16,0 16,5 7 4 13 7 ENE 1019,3 51 60 0,0
05.08.2020 10:00:00 12,1 10,8 16,3 14,9 16,0 16,6 7 4 11 6 NE 1020,8 14 36 0,0
05.08.2020 09:00:00 10,2 10,1 12,7 13,6 16,1 16,6 5 3 10 6 NNE 1021,5 0,1 1 0,0
05.08.2020 08:00:00 8,8 8,8 10,2 13,0 16,3 16,6 5 3 8 5 E 1021,8 0,1 12 0,0
05.08.2020 07:00:00 8,1 8,1 8,8 12,7 16,4 16,6 3 2 5 3 WSW 1021,8 0,1 0 0,0
05.08.2020 06:00:00 8,1 8,1 8,1 12,9 16,6 16,6 2 1 7 4 E 1021,3 0,1 0 0,0
05.08.2020 05:00:00 8,8 8,7 8,7 13,0 16,8 16,6 2 1 6 3 SW 1021,1 0,1 0 0,0
05.08.2020 04:00:00 9,7 9,6 9,4 13,1 17,0 16,6 3 2 12 6 WSW 1020,3 0,1 0 0,0
05.08.2020 03:00:00 9,4 9,2 8,0 13,5 17,2 16,6 5 3 9 5 SW 1020,2 1,8 0 0,0
05.08.2020 02:00:00 10,6 10,0 8,7 14,0 17,4 16,6 5 3 15 8 WSW 1019,7 9 0 0,0
05.08.2020 01:00:00 11,6 10,2 10,3 14,5 17,6 16,6 10 6 13 7 SW 1019,4 30 0 0,0
05.08.2020 00:00:00 11,7 10,0 9,8 15,2 17,7 16,6 6 3 9 5 WSW 1019,3 38 0 0,0
04.08.2020 23:00:00 12,5 10,7 10,6 15,8 17,8 16,6 6 3 14 8 WSW 1018,9 37 0 0,0
04.08.2020 22:00:00 13,5 11,2 13,0 16,3 17,9 16,6 11 6 15 8 SW 1018,5 46 0 0,0
04.08.2020 21:00:00 13,8 10,9 12,5 16,8 18,0 16,6 5 3 10 5 W 1017,9 46 4 0,0
04.08.2020 20:00:00 14,7 10,9 14,4 17,2 18,0 16,6 5 3 8 4 WSW 1017,1 57 0 0,0
04.08.2020 19:00:00 14,8 10,7 14,8 17,7 17,9 16,6 8 4 13 7 WNW 1016,4 51 0 0,0
04.08.2020 18:00:00 16,0 9,0 16,1 18,2 17,8 16,6 9 5 16 9 NW 1015,9 62 0 0,0
04.08.2020 17:00:00 16,3 8,6 17,1 18,7 17,6 16,6 13 7 24 13 NNW 1015,4 65 0 0,0
04.08.2020 16:00:00 17,2 8,2 19,6 18,5 17,4 16,6 16 9 26 14 N 1014,9 69 0 0,0
04.08.2020 15:00:00 16,4 8,7 18,9 18,1 17,3 16,6 13 7 28 15 N 1014,8 63 0 0,0
04.08.2020 14:00:00 16,0 9,5 19,7 17,6 17,2 16,6 12 7 29 16 N 1014,6 54 11 0,0
04.08.2020 13:00:00 15,0 9,5 16,5 16,7 17,1 16,6 17 9 27 15 N 1014,4 73 0 0,0
04.08.2020 12:00:00 13,8 10,8 15,1 15,7 17,1 16,6 15 8 24 13 NNE 1014,1 57 0 0,0
04.08.2020 11:00:00 12,9 11,6 14,3 14,7 17,2 16,6 13 7 21 12 N 1013,8 25 0 0,3
04.08.2020 10:00:00 11,7 10,9 12,3 14,1 17,3 16,6 14 7 26 14 N 1013,4 15 0 1,0
04.08.2020 09:00:00 11,2 10,4 11,3 14,0 17,5 16,6 16 9 28 15 N 1013,0 12 0 1,8
04.08.2020 08:00:00 10,9 10,0 10,9 14,0 17,6 16,6 19 10 28 15 N 1012,7 12 0 2,2
04.08.2020 07:00:00 11,1 9,7 10,7 14,1 17,8 16,6 21 11 32 17 N 1012,2 23 0 0,1
04.08.2020 06:00:00 11,9 8,4 11,2 14,3 18,0 16,6 20 11 28 15 NNW 1011,3 42 0 0,0
04.08.2020 05:00:00 12,4 8,0 11,7 14,4 18,2 16,6 11 6 23 12 N 1011,1 51 0 0,0
04.08.2020 04:00:00 12,7 7,9 12,1 14,6 18,4 16,6 16 9 23 13 N 1010,8 65 0 0,0
04.08.2020 03:00:00 12,9 8,0 12,2 14,9 18,6 16,6 13 7 24 13 N 1010,7 66 0 0,0
04.08.2020 02:00:00 13,3 8,1 12,5 15,1 18,8 16,6 16 9 27 14 N 1010,4 75 0 0,0
04.08.2020 01:00:00 13,6 8,2 12,8 15,4 18,9 16,6 16 9 29 16 N 1010,4 64 0 0,0
04.08.2020 00:00:00 13,8 8,3 13,1 15,8 19,1 16,6 21 11 29 15 N 1010,2 56 0 0,0
03.08.2020 23:00:00 13,8 8,7 12,9 16,3 19,3 16,6 13 7 21 11 N 1010,5 54 0 0,0
03.08.2020 22:00:00 14,3 8,5 13,4 16,8 19,5 16,6 13 7 25 14 NNE 1010,6 53 0 0,0
03.08.2020 21:00:00 14,8 8,7 13,9 17,4 19,5 16,6 14 8 25 13 NNE 1009,7 48 0 0,0
03.08.2020 20:00:00 15,5 9,7 14,7 18,1 19,6 16,6 15 8 26 14 NNE 1009,5 40 0 0,0
03.08.2020 19:00:00 16,0 10,4 16,6 18,5 19,6 16,6 15 8 25 14 NNE 1009,6 45 2 0,0
03.08.2020 18:00:00 15,4 10,7 16,5 18,5 19,7 16,5 10 6 24 13 NE 1010,4 32 0 0,0
03.08.2020 17:00:00 15,0 10,6 16,5 18,5 19,7 16,5 15 8 24 13 NE 1010,7 31 5 0,0
03.08.2020 16:00:00 14,5 10,7 15,6 18,5 19,8 16,5 16 9 27 15 N 1011,1 32 0 0,0
03.08.2020 15:00:00 14,7 11,2 15,7 18,8 19,8 16,5 18 10 27 15 N 1011,5 28 0 0,0
03.08.2020 14:00:00 14,9 11,2 16,9 18,8 19,8 16,5 14 8 24 13 N 1011,7 28 0 0,0
03.08.2020 13:00:00 14,7 11,5 16,4 18,8 19,8 16,5 14 8 27 14 N 1011,8 28 0 0,0
03.08.2020 12:00:00 14,4 11,9 15,9 18,1 20,0 16,5 19 10 32 17 NNE 1012,0 20 9 0,0
03.08.2020 11:00:00 13,4 11,9 14,8 17,4 20,1 16,5 16 9 32 17 N 1012,5 11 0 0,0
03.08.2020 10:00:00 12,8 12,4 13,3 17,5 20,3 16,5 17 9 29 16 N 1012,7 1,7 0 0,0
03.08.2020 09:00:00 13,3 13,1 13,8 17,7 20,5 16,5 14 8 28 15 N 1012,5 1,0 0 0,0
03.08.2020 08:00:00 14,4 13,6 14,5 17,8 20,6 16,4 11 6 22 12 N 1012,2 6 0 0,0
03.08.2020 07:00:00 14,5 13,6 14,4 18,0 20,8 16,4 14 8 23 12 N 1011,9 6 0 0,0
03.08.2020 06:00:00 14,9 14,2 14,7 18,2 21,1 16,4 11 6 22 12 N 1011,6 8 0 0,0
03.08.2020 05:00:00 15,1 14,3 14,8 18,4 21,3 16,4 14 7 21 11 N 1011,7 7 0 0,0
03.08.2020 04:00:00 15,1 14,3 14,8 18,7 21,5 16,4 10 5 16 9 NNW 1012,2 9 0 0,0
03.08.2020 03:00:00 15,4 14,4 14,8 19,1 21,7 16,4 6 3 18 10 NW 1012,3 8 0 0,0
03.08.2020 02:00:00 15,8 15,1 15,5 19,5 21,9 16,4 13 7 22 12 N 1012,5 5 0 0,0
03.08.2020 01:00:00 16,3 15,5 16,1 19,8 22,2 16,4 11 6 16 8 NNW 1012,7 9 0 0,0
03.08.2020 00:00:00 16,4 15,7 16,2 20,1 22,4 16,3 9 5 16 8 NNW 1012,5 10 0 0,0
02.08.2020 23:00:00 16,0 15,5 16,0 20,5 22,7 16,3 5 3 10 5 WNW 1012,7 6 0 0,0
02.08.2020 22:00:00 16,0 15,5 16,1 20,9 22,9 16,3 5 3 6 4 W 1012,9 6 0 0,0
02.08.2020 21:00:00 16,1 15,5 16,2 21,3 23,2 16,3 4 2 5 3 S 1012,7 23 0 0,0
02.08.2020 20:00:00 16,0 15,6 16,3 21,7 23,4 16,3 4 2 10 6 WSW 1012,6 8 0 5,6
02.08.2020 19:00:00 15,8 15,0 16,0 23,6 23,5 16,3 11 6 35 19 N 1013,2 3,4 0 4,1
02.08.2020 18:00:00 18,8 17,5 19,3 24,6 23,5 16,3 3 1 11 6 N 1011,9 15 0 1,3
02.08.2020 17:00:00 19,9 16,0 19,0 25,6 23,5 16,3 5 3 21 11 NW 1012,0 20 0 0,2
02.08.2020 16:00:00 20,8 14,1 19,4 26,7 23,3 16,2 13 7 27 15 WSW 1011,6 21 0 0,0
02.08.2020 15:00:00 23,1 14,0 26,2 27,0 23,1 16,2 7 4 29 16 N 1010,7 53 0 0,0
02.08.2020 14:00:00 23,4 13,0 25,0 27,5 22,9 16,2 13 7 33 18 NW 1010,7 58 0 0,0
02.08.2020 13:00:00 24,5 13,3 28,2 27,3 22,7 16,2 20 11 31 17 N 1010,8 46 42 0,0
02.08.2020 12:00:00 23,7 13,0 27,0 26,0 22,5 16,2 21 11 37 20 WNW 1011,3 50 9 0,0
02.08.2020 11:00:00 25,3 12,5 28,2 25,6 22,4 16,2 19 10 29 16 NW 1010,4 41 40 0,0
02.08.2020 10:00:00 24,1 14,2 27,8 23,6 22,4 16,2 11 6 18 10 SSW 1010,2 43 60 0,0
02.08.2020 09:00:00 21,7 12,9 24,4 22,1 22,6 16,2 3 2 8 4 SSE 1010,8 56 60 0,0
02.08.2020 08:00:00 19,7 10,7 22,3 20,9 22,9 16,2 3 2 5 3 NNE 1012,0 56 60 0,0
02.08.2020 07:00:00 17,1 10,1 16,5 20,7 23,2 16,1 2 1 7 4 NNE 1012,5 46 25 0,0
02.08.2020 06:00:00 16,6 10,1 14,0 21,2 23,5 16,1 4 2 9 5 NNW 1012,6 49 0 0,0
02.08.2020 05:00:00 18,3 10,7 15,0 22,0 23,8 16,1 5 3 12 7 E 1012,0 56 0 0,0
02.08.2020 04:00:00 19,7 10,6 15,9 22,8 24,0 16,1 3 2 11 6 NE 1011,8 45 0 0,0
02.08.2020 03:00:00 20,6 11,6 17,9 23,6 24,3 16,1 6 3 11 6 ENE 1011,8 58 0 0,0
02.08.2020 02:00:00 21,5 12,3 18,5 24,5 24,5 16,1 4 2 8 5 E 1011,9 53 0 0,0
02.08.2020 01:00:00 22,2 12,2 21,0 25,2 24,7 16,1 10 5 39 21 NE 1012,4 50 0 0,0
02.08.2020 00:00:00 23,1 12,7 22,3 26,0 24,9 16,1 27 15 39 21 N 1012,2 47 0 0,0
01.08.2020 23:00:00 24,7 11,0 23,9 26,9 25,0 16,1 23 12 34 19 N 1011,5 54 0 0,0
01.08.2020 22:00:00 25,6 10,6 23,3 28,0 25,0 16,1 5 3 8 4 ENE 1011,3 65 0 0,0
01.08.2020 21:00:00 26,6 10,0 23,0 29,5 24,9 16,1 4 2 10 5 NNE 1010,6 54 0 0,0
01.08.2020 20:00:00 27,9 9,9 26,6 31,4 24,7 16,0 5 3 14 8 N 1010,2 61 44 0,0
01.08.2020 19:00:00 31,1 8,4 32,9 32,4 24,3 16,0 4 2 19 10 W 1009,8 63 60 0,0
01.08.2020 18:00:00 31,1 8,0 33,8 33,1 23,8 16,0 11 6 17 9 WNW 1010,1 65 60 0,0
01.08.2020 17:00:00 31,2 6,3 35,7 33,2 23,2 16,0 13 7 22 12 NW 1010,6 75 60 0,0
01.08.2020 16:00:00 31,1 7,6 36,9 32,6 22,6 16,0 4 2 22 12 SW 1010,9 69 60 0,0
01.08.2020 15:00:00 31,0 8,4 37,0 31,6 22,0 16,0 11 6 24 13 NNW 1011,1 75 60 0,0
01.08.2020 14:00:00 29,2 8,8 36,2 30,3 21,4 16,0 8 4 23 12 NW 1012,2 61 60 0,0
01.08.2020 13:00:00 29,3 10,8 36,5 28,4 21,0 16,0 6 3 17 9 SW 1012,7 42 60 0,0
01.08.2020 12:00:00 27,7 10,6 33,6 26,0 20,7 16,0 4 2 15 8 E 1013,4 56 60 0,0
01.08.2020 11:00:00 25,1 12,1 30,8 23,5 20,6 16,0 7 4 14 8 ENE 1013,9 53 60 0,0
01.08.2020 10:00:00 21,9 11,2 27,0 21,2 20,7 16,0 5 3 11 6 NE 1014,9 41 60 0,0
01.08.2020 09:00:00 19,3 10,6 23,4 19,4 20,9 15,9 7 4 10 6 NE 1015,4 46 60 0,0
01.08.2020 08:00:00 17,0 10,1 19,5 18,3 21,1 15,9 4 2 6 3 NE 1016,3 51 60 0,0
01.08.2020 07:00:00 15,1 10,1 14,5 17,8 21,5 15,9 2 1 6 3 N 1017,0 49 57 0,0
01.08.2020 06:00:00 14,0 9,7 9,7 18,2 21,8 15,9 3 2 9 5 NE 1017,2 52 0 0,0
01.08.2020 05:00:00 15,1 9,9 10,0 18,9 22,1 15,9 0 0 7 4 N 1017,0 50 0 0,0
01.08.2020 04:00:00 15,4 10,3 10,6 19,6 22,5 15,9 4 2 7 4 NNE 1017,2 64 0 0,0
01.08.2020 03:00:00 15,3 9,8 12,5 20,3 22,8 15,9 4 2 7 4 NW 1017,6 55 0 0,0
01.08.2020 02:00:00 16,8 10,2 12,9 21,2 23,1 15,9 4 2 7 4 NNE 1017,6 65 0 0,0

tt = temperature
td = dewpoint
tt 5cm = temperature 5cm
tt -5cm = temperature -5cm
tt -20cm = temperature -20cm
tt -100cm = temperature -100cm
ff = wind speed
fx = gusts
dd = wind direction
ppp = reduced air pressure
vv = visibility
sd = sunshine duration
rr = precipitation

Next stations